THORAD AGENA D DEB

Satellite information

Favourite Embed

Satellite Type and Status

DEBRISIN ORBIT

Key statistics

Satellite THORAD AGENA D DEB at a glance.

Uptime

20313

Days in orbit

Revolutions

≈ 14.5

Per day

Orbit

LEO

Low Earth Orbit

Inclination

70.3

Latest

Satellite identification and parameters

Extended collection of information and parameters for THORAD AGENA D DEB.

Object identification

Identified? True

Debris? True

Object name: THORAD AGENA D DEB

International designator: 1969-082CN

Object number (NORAD): 4231

Object ID (CCSDS): 4231

Country: UNITED STATES OF AMERICA (US)

Current information (Y/N): Y

RCS size: SMALL

Orbital parameters

Period: 99.339 minutes

Inclination: 70.276 deg

SMA: 7105.162 km

Apoapsis: 749.673 km

Periapsis: 704.381 km

RAAN: 334.1451 deg

Eccentricy: 0.0031873

Argument of periapsis: 307.4234 deg

Mean anomaly: 52.4002 deg

Mean motion: 14.49578591 rev/day

Mean motion (dot): 0.00001634 rev/day2

B* drag term: 0.00043825 1/REarth

Two-line elements (TLE)

Creation date: May 11, 2025, 2:40 a.m.

Reference frame: TEME

Reference center: EARTH

Epoch: May 10, 2025, 4:01 p.m. UTC

TLE line 0: 0 THORAD AGENA D DEB

TLE line 1: 1 04231U 69082CN 25130.66798304 .00001634 00000-0 43825-3 0 9998

TLE line 2: 2 04231 70.2760 334.1451 0031873 307.4234 52.4002 14.49578591893343

Live tracking on map

Real-time ground track for satellite THORAD AGENA D DEB.

In-orbit conjunctions

A list of the most updated potential collisions computed for object THORAD AGENA D DEB.

Target Orbit TCA Probability of collision Miss distance Type
COSMOS 2251 DEB LEO 2024-09-27 06:10:13 0.0001538903 148.0 (m) DEBRIS
NOAA 17 DEB SSO 2024-07-01 18:25:53 0.0001753085 87.0 (m) DEBRIS
MAST SSO 2024-06-10 00:45:20 0.0001459428 619.0 (m) PAYLOAD

Associated space launch

Poppy was the follow-on ELINT system, which succeeded the Grab ELINT satellite system.

THORAD AGENA D DEB was lifted into orbit during the mission ‘Thorad SLV-2G Agena D | Poppy 8A,B,C,D’, on board a Thorad SLV-2G Agena D space rocket.

The launch took place on Sept. 30, 1969, 1:40 p.m. from Space Launch Complex 1W.

For more information about the launch, click the button.

Launch to space Thorad SLV-2G Agena D | Poppy 8A,B,C,D
Thorad SLV-2G Agena D | Poppy 8A,B,C,D

Agency: N/A

Status: Launch Successful

Launch date: Sept. 30, 1969, 1:40 p.m. UTC

Rocket: Thorad SLV-2G Agena D

Launch pad: Space Launch Complex 1W

Location: Vandenberg SFB, CA, USA

...

Latest news about this satellite

There are no fresh news available about this satellite. Check back as we update our databases every day.


Newsletter sign-up

Weekly statistics, charts and insights to help you stay on top of the space industry.